7L2IWN-13 Weather Reports


time (UTC)temp
C
wind
direction
speed
KPH
gust
KPH
rain 1hr
cm
rain 24hr
cm
rain mn
cm
humidity
%
barometer
mb
20260904124802 20 336 1.6 1.6 0.10 0.28 0.28 99 1011.6
20260904123603 20 35 1.6 4.8 0.10 0.25 0.25 99 1011.4
20260904122403 21 64 3.2 4.8 0.05 0.20 0.20 97 1011.6
20260904121202 21 64 3.2 4.8 0.08 0.20 0.20 97 1012.1
20260904120001 20 40 4.8 4.8 0.05 0.18 0.18 99 1011.9
20260904114801 20 40 4.8 4.8 0.05 0.18 0.18 99 1012.1
20260904113603 21 116 0.0 3.2 0.05 0.15 0.15 99 1012.7
20260904112401 21 45 1.6 1.6 0.08 0.15 0.15 99 1012.4
20260904111203 21 99 0.0 1.6 0.05 0.13 0.13 99 1012.6
20260904110002 22 147 4.8 8.0 0.05 0.13 0.13 95 1012.3
20260904104802 22 173 8.0 12.9 0.05 0.13 0.13 99 1012.1
20260904103601 21 295 11.3 14.5 0.03 0.10 0.10 99 1011.6
20260904102402 22 192 11.3 14.5 0.00 0.08 0.08 99 1011.6
20260904101203 21 27 3.2 8.0 0.00 0.08 0.08 99 1011.4
20260904100003 21 300 0.0 0.0 0.00 0.10 0.08 99 1011.1
20260904094801 21 239 1.6 3.2 0.00 0.10 0.08 99 1010.8
20260904093603 22 255 1.6 3.2 0.00 0.10 0.08 99 1010.7
20260904092402 21 113 4.8 11.3 0.00 0.10 0.08 99 1011.3
20260904091203 21 124 3.2 3.2 0.00 0.10 0.08 99 1011.5
20260904090002 21 138 1.6 3.2 0.00 0.10 0.08 99 1011.6
20260904084802 21 155 8.0 11.3 0.00 0.10 0.08 99 1011.2
20260904083604 21 284 4.8 9.7 0.00 0.10 0.08 99 1010.9
20260904082403 22 180 3.2 3.2 0.00 0.10 0.08 99 1010.4
20260904081202 22 226 3.2 8.0 0.00 0.10 0.08 99 1011.0
20260904080002 22 285 4.8 8.0 0.00 0.10 0.08 99 1011.1
20260904074803 22 224 4.8 4.8 0.00 0.10 0.08 99 1011.0
20260904073603 22 354 1.6 3.2 0.00 0.10 0.08 99 1010.5
20260904072402 22 165 0.0 3.2 0.00 0.13 0.08 97 1010.5
20260904071202 22 168 3.2 4.8 0.00 0.15 0.08 99 1010.7
20260904070003 23 148 4.8 11.3 0.00 0.28 0.08 91 1010.6
20260904064803 22 240 1.6 11.3 0.00 0.30 0.08 97 1009.9
20260904063604 22 184 3.2 3.2 0.00 0.30 0.08 99 1010.1
20260904062402 23 329 0.0 0.0 0.00 0.30 0.08 99 1010.4
20260904061203 23 175 1.6 4.8 0.00 0.30 0.08 97 1010.3
20260904060003 23 226 8.0 9.7 0.00 0.30 0.08 97 1010.7
20260904054802 23 157 1.6 3.2 0.00 0.30 0.08 95 1010.6
20260904053602 24 88 0.0 0.0 0.00 0.30 0.08 92 1011.0
20260904052404 24 15 0.0 1.6 0.00 0.33 0.08 93 1011.0
20260904051203 24 85 0.0 0.0 0.00 0.33 0.08 90 1010.6
20260904050003 24 227 1.6 4.8 0.00 0.33 0.08 91 1011.0
20260904044803 24 223 3.2 4.8 0.00 0.33 0.08 90 1011.1
20260904043602 24 303 3.2 4.8 0.00 0.36 0.08 90 1010.6
20260904042402 25 34 0.0 0.0 0.00 0.36 0.08 83 1010.7
20260904041203 25 342 3.2 9.7 0.00 0.36 0.08 87 1010.8
20260904040003 25 285 1.6 4.8 0.00 0.36 0.08 84 1010.7
20260904034804 25 120 3.2 4.8 0.00 0.36 0.08 87 1010.6
20260904033603 25 30 0.0 0.0 0.00 0.38 0.08 88 1010.5
20260904032403 24 359 4.8 9.7 0.00 0.38 0.08 91 1010.6
20260904031202 24 40 1.6 1.6 0.03 0.38 0.08 86 1010.9
20260904030003 23 132 1.6 3.2 0.03 0.38 0.08 91 1010.7
20260904024802 23 141 4.8 8.0 0.03 0.38 0.08 94 1010.9
20260904023602 23 104 1.6 3.2 0.03 0.38 0.08 95 1010.9
20260904022402 23 329 4.8 9.7 0.03 0.38 0.08 97 1011.0
20260904021202 20 300 4.8 8.0 0.00 0.36 0.05 99 1011.0
20260904020003 20 300 4.8 8.0 0.00 0.36 0.05 99 1011.9
20260904014803 20 300 4.8 8.0 0.00 0.36 0.05 99 1011.8
20260904013603 20 300 4.8 8.0 0.00 0.36 0.05 99 1011.9
20260904012402 20 300 4.8 8.0 0.00 0.36 0.05 99 1011.9
20260904011201 20 300 4.8 8.0 0.00 0.36 0.05 99 1011.8
20260904010002 20 300 4.8 8.0 0.00 0.36 0.05 99 1011.8
20260904004801 20 300 4.8 8.0 0.00 0.36 0.05 99 1012.1
20260904003601 20 300 4.8 8.0 0.00 0.36 0.05 99 1012.4
20260904002400 20 300 4.8 8.0 0.00 0.36 0.05 99 1012.7
20260904001203 20 300 4.8 8.0 0.00 0.36 0.05 99 1012.6
20260904000004 20 300 4.8 8.0 0.00 0.36 0.05 99 1012.6
20260903234804 20 300 4.8 8.0 0.00 0.36 0.05 99 1012.4
20260903233605 20 300 4.8 8.0 0.00 0.36 0.05 99 1012.4
20260903232404 20 300 4.8 8.0 0.00 0.36 0.05 99 1012.1
20260903231204 20 300 4.8 8.0 0.00 0.36 0.05 99 1012.1
20260903230002 20 300 4.8 8.0 0.00 0.36 0.05 99 1012.0
20260903224802 20 300 4.8 8.0 0.00 0.36 0.05 99 1012.1
20260903223605 20 300 4.8 8.0 0.00 0.36 0.05 99 1012.5
20260903222403 20 300 4.8 8.0 0.00 0.36 0.05 99 1012.5
20260903221203 20 300 4.8 8.0 0.00 0.36 0.05 99 1012.0
20260903220003 20 300 4.8 8.0 0.00 0.36 0.05 99 1012.1
20260903214802 20 300 4.8 8.0 0.00 0.36 0.05 99 1012.0
20260903213603 20 300 4.8 8.0 0.00 0.36 0.05 99 1011.9
20260903212403 20 300 4.8 8.0 0.00 0.36 0.05 99 1011.4
20260903211202 20 300 4.8 8.0 0.00 0.36 0.05 99 1011.2
20260903210002 20 300 4.8 8.0 0.03 0.36 0.05 99 1011.6
20260903204803 20 300 4.8 8.0 0.03 0.36 0.05 99 1011.4
20260903203603 20 300 4.8 8.0 0.03 0.36 0.05 99 1011.3
20260903202402 20 300 4.8 8.0 0.03 0.36 0.05 99 1010.5
20260903201202 20 222 3.2 4.8 0.03 0.36 0.05 99 1010.7
20260903200002 20 98 1.6 3.2 0.00 0.33 0.03 99 1010.6
20260903194803 20 127 3.2 4.8 0.00 0.33 0.03 99 1010.0
20260903193603 20 25 1.6 3.2 0.00 0.33 0.03 99 1010.3
20260903192404 20 159 1.6 3.2 0.00 0.33 0.03 99 1010.9
20260903191203 20 147 4.8 8.0 0.00 0.33 0.03 99 1010.2
20260903190003 20 139 3.2 8.0 0.00 0.33 0.03 99 1009.8
20260903184804 20 5 3.2 3.2 0.00 0.33 0.03 99 1009.6
20260903183603 20 287 0.0 3.2 0.00 0.33 0.03 99 1009.6
20260903182402 20 287 1.6 3.2 0.00 0.33 0.03 99 1009.5
20260903181202 20 320 0.0 0.0 0.00 0.33 0.03 99 1009.5
20260903180002 20 103 0.0 3.2 0.00 0.33 0.03 99 1009.6
20260903174803 20 259 3.2 4.8 0.00 0.33 0.03 99 1009.9
20260903173603 20 332 0.0 0.0 0.00 0.33 0.03 99 1009.6
20260903172403 20 313 3.2 4.8 0.00 0.33 0.03 99 1009.4
20260903171202 20 296 1.6 3.2 0.00 0.33 0.03 99 1009.6
20260903170002 20 358 1.6 4.8 0.00 0.33 0.03 99 1009.4
20260903164803 20 98 4.8 8.0 0.00 0.33 0.03 99 1009.4
20260903163603 20 56 3.2 4.8 0.00 0.33 0.03 99 1009.8
20260903162403 21 39 4.8 8.0 0.00 0.33 0.03 99 1009.6
20260903161202 21 120 1.6 3.2 0.03 0.33 0.03 99 1009.3
20260903160003 21 318 4.8 8.0 0.03 0.33 0.03 99 1009.4
20260903154803 21 302 4.8 9.7 0.00 0.33 0.03 99 1009.5
20260903153602 21 285 0.0 3.2 0.00 0.33 0.03 99 1009.5
20260903152402 21 237 1.6 3.2 0.00 0.33 0.03 99 1010.1
20260903151201 21 240 3.2 3.2 0.00 0.30 0.00 99 1009.8
20260903150004 21 309 1.6 3.2 0.00 0.30 0.30 99 1010.0
20260903144802 21 320 3.2 4.8 0.00 0.30 0.30 99 1010.0
20260903143603 21 258 3.2 3.2 0.00 0.30 0.30 99 1009.9
20260903142402 21 83 0.0 0.0 0.00 0.30 0.30 99 1009.9
20260903141202 21 12 3.2 4.8 0.00 0.30 0.30 99 1010.1
20260903140004 21 57 4.8 9.7 0.00 0.30 0.30 99 1009.9
20260903134803 21 211 4.8 8.0 0.00 0.30 0.30 99 1009.8
20260903133603 21 251 1.6 3.2 0.00 0.30 0.30 99 1009.5
20260903132403 21 353 0.0 0.0 0.00 0.30 0.30 99 1009.3
20260903131202 21 22 1.6 3.2 0.00 0.30 0.30 99 1009.9
20260903130001 21 124 3.2 4.8 0.00 0.30 0.30 99 1010.2